Location: Bathurst
(33.4193°S, 149.5775°E)
Time: 11:12:05
(UTC+10:00)

Explorer 7 - Pass Details

Date: 13 June 2021
Orbit: 484 x 676 km, 50.3° (Epoch: 02 August)

Event Time Altitude Azimuth Distance (km) Brightness Sun altitude
Rises 18:32:20 0° 233° (SW) 2,836 11.0 -18.6°
Reaches altitude 10° 18:34:36 10° 237° (WSW) 1,962 10.2 -19.1°
Maximum altitude 18:39:02 57° 314° (NW) 746 7.7 -20.0°
Enters shadow 18:43:35 10° 32° (NNE) 2,020 9.5 -20.9°
